TimeCDT,TemperatureF,Dew PointF,Humidity,Sea Level PressureIn,VisibilityMPH,Wind Direction,Wind SpeedMPH,Gust SpeedMPH,PrecipitationIn,Events,Conditions,WindDirDegrees,DateUTC
12:52 AM,73.9,66.0,76,29.90,10.0,South,10.4,-,N/A,,Clear,190,2013-10-15 05:52:00
1:52 AM,73.0,66.0,79,29.88,10.0,South,12.7,-,N/A,,Clear,190,2013-10-15 06:52:00
2:52 AM,72.0,66.9,84,29.87,10.0,SSW,8.1,-,N/A,,Partly Cloudy,210,2013-10-15 07:52:00
3:52 AM,72.0,66.9,84,29.86,10.0,SSW,9.2,-,N/A,,Mostly Cloudy,200,2013-10-15 08:52:00
4:34 AM,71.6,66.2,83,29.93,10.0,Calm,Calm,-,N/A,,Mostly Cloudy,0,2013-10-15 09:34:00
4:52 AM,71.1,68.0,90,29.88,10.0,West,5.8,-,0.00,,Overcast,260,2013-10-15 09:52:00
5:52 AM,71.1,68.0,90,29.90,10.0,SW,6.9,-,0.00,Rain,Light Rain,220,2013-10-15 10:52:00
6:00 AM,71.6,68.0,88,29.96,10.0,SSW,6.9,-,0.00,Rain,Light Rain,210,2013-10-15 11:00:00
6:52 AM,70.0,68.0,93,29.89,10.0,SSW,5.8,-,0.01,Rain,Light Rain,200,2013-10-15 11:52:00
7:44 AM,66.2,64.4,94,29.99,8.0,North,20.7,26.5,0.00,Rain,Light Rain,350,2013-10-15 12:44:00
7:52 AM,61.0,57.9,90,29.94,10.0,North,21.9,-,0.00,Rain,Light Rain,360,2013-10-15 12:52:00
8:17 AM,60.8,55.4,82,30.02,10.0,North,19.6,-,0.00,,Overcast,350,2013-10-15 13:17:00
8:52 AM,57.9,53.1,84,30.00,10.0,North,16.1,24.2,0.00,,Overcast,360,2013-10-15 13:52:00
9:06 AM,57.2,53.6,88,30.06,10.0,NNW,16.1,23.0,N/A,,Overcast,340,2013-10-15 14:06:00
9:26 AM,57.2,51.8,82,30.07,10.0,North,17.3,-,0.00,Rain,Light Rain,350,2013-10-15 14:26:00
9:52 AM,55.9,52.0,87,30.04,10.0,NNW,16.1,-,0.00,Rain,Light Rain,340,2013-10-15 14:52:00
10:23 AM,55.4,51.8,88,30.10,10.0,NNW,12.7,-,0.01,Rain,Light Rain,340,2013-10-15 15:23:00
10:52 AM,54.0,51.1,90,30.05,10.0,North,15.0,-,0.02,Rain,Light Rain,360,2013-10-15 15:52:00
10:59 AM,53.6,51.8,94,30.10,10.0,North,16.1,25.3,0.00,Rain,Light Rain,10,2013-10-15 15:59:00
11:12 AM,51.8,50.0,94,30.09,9.0,North,20.7,26.5,0.01,Rain,Light Rain,10,2013-10-15 16:12:00
11:21 AM,51.8,50.0,94,30.09,7.0,North,16.1,26.5,0.03,Rain,Light Rain,360,2013-10-15 16:21:00
11:41 AM,51.8,50.0,94,30.10,10.0,North,17.3,-,0.03,Rain,Light Rain,350,2013-10-15 16:41:00
11:52 AM,51.1,48.9,92,30.06,10.0,North,17.3,-,0.04,Rain,Light Rain,350,2013-10-15 16:52:00
12:52 PM,51.1,48.0,89,30.06,10.0,North,17.3,21.9,0.01,Rain,Light Rain,350,2013-10-15 17:52:00
1:01 PM,51.8,48.2,88,30.10,10.0,North,12.7,23.0,0.00,Rain,Light Rain,350,2013-10-15 18:01:00
1:16 PM,51.8,48.2,88,30.09,10.0,North,16.1,-,0.01,Rain,Light Rain,350,2013-10-15 18:16:00
1:50 PM,51.8,48.2,88,30.08,10.0,North,12.7,-,0.02,Rain,Light Rain,360,2013-10-15 18:50:00
1:52 PM,51.1,48.0,89,30.04,10.0,North,16.1,-,0.02,Rain,Light Rain,350,2013-10-15 18:52:00
2:52 PM,50.0,46.9,89,30.04,10.0,North,15.0,-,0.03,Rain,Light Rain,350,2013-10-15 19:52:00
3:52 PM,50.0,46.9,89,30.03,10.0,North,17.3,-,0.02,Rain,Light Rain,360,2013-10-15 20:52:00
3:59 PM,50.0,46.4,87,30.07,10.0,North,16.1,-,0.00,Rain,Light Rain,360,2013-10-15 20:59:00
4:02 PM,50.0,46.4,87,30.07,10.0,North,16.1,-,0.00,Rain,Light Rain,10,2013-10-15 21:02:00
4:52 PM,51.1,46.0,83,30.06,10.0,North,13.8,-,0.00,Rain,Light Rain,360,2013-10-15 21:52:00
4:56 PM,51.8,46.4,82,30.09,8.0,North,13.8,-,0.01,Rain,Light Rain,360,2013-10-15 21:56:00
5:04 PM,51.8,46.4,82,30.07,5.0,North,15.0,-,0.02,Rain,Light Rain,10,2013-10-15 22:04:00
5:34 PM,50.0,46.4,87,30.07,10.0,North,12.7,-,0.04,Rain,Light Rain,360,2013-10-15 22:34:00
5:52 PM,50.0,48.0,93,30.04,10.0,North,12.7,-,0.05,Rain,Light Rain,350,2013-10-15 22:52:00
6:06 PM,50.0,48.2,94,30.07,8.0,North,9.2,-,0.01,Rain,Light Rain,360,2013-10-15 23:06:00
6:15 PM,50.0,46.4,87,30.07,9.0,North,10.4,-,0.01,Rain,Light Rain,360,2013-10-15 23:15:00
6:52 PM,50.0,46.9,89,30.06,9.0,North,10.4,-,0.03,Rain,Light Rain,360,2013-10-15 23:52:00
7:30 PM,48.2,46.4,93,30.09,10.0,North,13.8,-,0.07,Rain,Light Rain,360,2013-10-16 00:30:00
7:52 PM,48.9,46.0,90,30.08,10.0,North,10.4,-,0.08,Rain,Light Rain,360,2013-10-16 00:52:00
8:01 PM,48.2,46.4,93,30.11,10.0,NNW,11.5,-,0.00,Rain,Light Rain,340,2013-10-16 01:01:00
8:23 PM,48.2,46.4,93,30.12,10.0,North,10.4,-,0.02,Rain,Light Rain,10,2013-10-16 01:23:00
8:52 PM,48.9,46.0,90,30.10,10.0,North,10.4,-,0.02,,Overcast,10,2013-10-16 01:52:00
9:52 PM,48.9,46.0,90,30.12,10.0,NNE,4.6,-,0.01,,Overcast,20,2013-10-16 02:52:00
10:52 PM,48.9,46.0,90,30.12,10.0,NNE,5.8,-,0.04,Rain,Light Rain,20,2013-10-16 03:52:00
11:52 PM,50.0,46.9,89,30.12,10.0,North,10.4,-,0.02,Rain,Light Rain,350,2013-10-16 04:52:00